THORAD DELTA 1 DEB, 42605

Orbit data source: Space-Track

THORAD DELTA 1 DEB, 42605 is space debris in SSO originally from a launch on Fri, 15 Nov 1974 UTC launched from the Air Force Western Test Range (AFWTR). Debris objects in space refer to the collection of defunct objects orbiting the Earth. Examples of debris include non-operational satellites, rocket bodies, and fragments generated from explosions, collisions, or faulty payload assembly.

Loading next visibility...
Identifier
42605, 1974-089FW
Orbit
SSO
Country
Flag of USUS
Related business
Manufacturer
Unknown
Mission
Spacecraft
Bus & Motor
Unknown
Mass
Unknown
Launch date (UTC)
1974-11-15 (51 years ago)
Launch vehicle
Unknown
Launch site
Air Force Western Test Range (AFWTR)
Object type
Payload
Rocket body
Debris
Shape & HBR
Unknown shape, 0.1 m
Radar Cross Section
Small (<0.1 m²)

Expand to show TLE details & history
Last TLE update: 1 day ago

TLE from 1 day ago
0 THORAD DELTA 1 DEB
1 42605U 74089FW  26122.60954801  .00000015  00000-0  47070-3 0  9998
2 42605 101.5021  70.9544 0125498 297.0608  61.7691 12.29193491451044
Epoch: 2026-05-02T14:37Z
TLE epoch observation values (Epoch: 2026-05-02T14:37:44.948Z)
Latitude
-0.00003°
Longitude
-9.00787°
Altitude
1,509.193 km
Speed
7.131 km/s
True Right ascension
04h 43m 49s
True Declination
0° 00' 00"
Sunlit
Object was in daylight at epoch
Visualization orbit readout
Latitude
Unknown
Longitude
Unknown
Altitude
Unknown
Speed
Unknown
Apparent Right ascension
Unknown
Apparent Declination
Unknown
Sunlit
N/A
Visualization observer readout
Local Sidereal Time
04:18:45
Azimuth
Unknown
Elevation
Unknown
Doppler factor
Unknown
Orbital elements
Apogee altitude
1,649.808 km
Perigee altitude
1,450.807 km
Semi-major axis
7,928.445 km
Eccentricity
0.01255
Inclination
101.5021°
RAAN
70.9544°
Arg. of periapsis
297.0608°
True anomaly
63.0455°
Mean anomaly
61.7691°
Eccentric anomaly
62.40636°
Mean motion
3.07441 °/min
Orbital period
117.1 mins
BSTAR
0.0004707
Loading maneuver chart data...
Computing Atmospheric mass density...

Documentation

Showing up to 5 results
|